Dewpoint
63 64 63 63 62 63 63 64 64 63 63 63 63 62 63 64 65 64 64 64 65 64 64 64 65 66 67 66 66 66 66 65 65 64 63 64 63 62 64 62 62 63
64 65 66 63 64 65 64 64 64 63 63 63 63 62 63 63 65 65 64 64 65 65 64 64 64 65 65 66 65 65 65 64 64 66 63 63 64 62 63 63 63 63
64 64 64 63 63 64 64 64 64 63 63 63 63 63 63 65 64 65 64 64 64 65 65 64 64 65 65 65 65 65 65 63 63 63 65 64 63 63 63 63 63 63
64 64 64 63 64 64 63 63 63 63 63 63 63 63 64 65 65 64 64 68 64 64 64 64 64 64 64 64 64 64 64 64 64 63 64 64 65 64 64 63 64 63
64 64 64 63 63 64 63 63 63 63 63 62 62 63 66 65 65 64 64 64 65 64 63 64 64 64 64 64 64 64 64 64 64 64 63 63 63 64 64 63 62 63
64 64 64 63 63 63 62 62 63 63 62 61 61 63 64 64 64 64 64 63 63 64 63 63 63 63 63 64 63 63 63 64 64 63 63 63 63 63 64 64 63 62
64 64 63 63 62 62 62 62 62 64 62 61 62 63 64 63 63 63 63 63 62 63 63 63 62 62 63 62 62 63 63 63 63 62 63 63 63 63 62 63 63 62
64 64 63 63 62 62 63 62 62 63 62 62 61 61 63 63 63 63 63 62 62 61 62 62 62 62 62 62 63 62 62 64 64 63 62 63 62 62 61 62 62 61
64 64 63 63 62 62 62 62 62 62 63 62 61 61 63 62 62 62 62 62 62 62 62 62 62 62 62 62 63 62 63 63 63 63 63 62 62 62 61 60 60 61
65 64 63 63 62 62 62 62 62 62 64 63 62 62 62 63 63 62 62 62 62 62 62 62 62 62 62 63 63 63 63 62 62 62 63 62 62 62 62 61 60 60
65 64 63 62 62 62 62 62 62 62 63 63 63 63 62 62 63 63 62 62 62 62 62 62 62 62 62 62 63 63 63 63 63 62 62 62 62 62 63 61 60 60
65 64 63 62 62 62 62 62 62 63 63 64 64 63 63 62 62 62 63 63 62 62 62 62 62 62 62 62 63 63 63 63 63 62 62 62 61 61 61 61 60 60
65 64 64 63 63 62 63 63 62 63 63 63 63 63 62 61 61 61 62 62 62 62 62 62 62 62 63 63 62 62 63 63 63 62 62 62 61 61 60 60 60 60
65 64 64 63 63 63 63 63 64 64 64 63 62 61 59 59 59 59 58 61 60 61 62 62 62 61 61 61 62 62 63 63 63 63 62 61 61 61 61 61 61 61
65 64 64 64 64 64 63 63 63 63 63 62 61 61 60 59 58 59 59 60 60 60 60 60 60 60 60 60 60 61 62 62 63 63 62 62 61 61 61 61 61 61
65 65 64 64 64 64 64 64 63 63 62 61 60 60 60 60 59 60 59 59 60 59 59 59 60 60 63 62 62 62 62 63 63 62 62 61 61 61 61 61 60 60
65 65 64 64 64 64 64 64 63 62 61 60 60 60 60 60 60 60 60 59 59 58 58 59 60 61 62 60 61 63 63 62 62 62 62 61 61 61 61 61 60 59
65 65 64 64 64 64 64 63 62 62 61 61 60 60 60 60 61 60 60 60 60 59 59 59 59 62 59 59 60 61 63 63 62 62 62 61 61 61 61 61 60 59
65 65 65 64 64 64 63 63 62 61 61 61 60 60 60 60 60 60 60 60 60 59 59 60 60 60 58 58 59 59 60 63 63 62 62 62 61 61 61 60 60 59
65 65 64 64 64 63 63 62 62 61 61 60 61 61 60 60 60 60 61 60 61 60 60 60 60 60 59 58 58 58 59 61 61 62 62 61 61 61 60 60 59 59
65 64 63 63 63 63 63 62 62 61 61 60 60 60 60 60 60 60 61 61 61 61 61 60 60 59 58 57 57 56 57 60 60 61 60 60 60 60 60 60 60 59
65 63 63 63 63 63 62 62 62 61 61 61 61 61 61 61 61 61 61 61 61 61 60 60 60 58 57 57 56 56 57 59 59 59 59 59 59 60 60 60 59 59
64 63 63 63 63 62 61 62 62 61 61 62 61 61 61 61 61 61 61 61 61 61 60 60 60 59 56 55 54 55 55 57 58 58 58 58 58 59 59 59 59 59
63 63 62 62 61 61 61 61 61 61 61 62 61 61 61 61 61 61 61 61 61 61 60 60 59 58 55 54 53 54 56 56 57 57 57 58 58 58 59 58 59 63
63 62 61 61 61 61 61 61 61 61 61 63 62 62 61 61 62 61 61 61 62 61 62 61 60 59 56 55 54 53 56 56 57 57 56 57 58 58 57 57 56 59
63 62 62 61 61 61 61 61 62 62 62 62 62 62 62 62 62 62 61 61 61 62 61 61 60 60 60 55 52 52 54 58 58 57 57 57 57 58 56 54 54 53